Wind_Speed
13 12 12 11 11 11 13 14 13 14 15 16 18 21 23 23 23 23 21 21 20 20 20 21 21 21 22 22 23 24 26 27 28 29 30 30 30 32 33 33 35 37 39 41
11 9 12 13 13 13 13 13 12 12 14 17 19 21 23 23 22 22 22 22 22 21 21 21 22 22 23 24 25 26 28 29 30 31 32 32 33 34 34 35 37 40 41 42
11 12 13 13 16 15 13 13 11 13 16 18 20 21 21 21 22 22 22 22 22 22 22 22 23 23 24 25 26 28 29 30 31 32 33 35 36 37 38 39 40 42 43 43
14 13 15 16 15 12 12 12 13 14 15 17 19 20 20 21 21 21 22 23 24 24 24 24 24 25 26 27 29 30 31 32 33 34 36 38 40 41 41 41 43 44 45 45
14 15 18 20 21 19 17 16 14 14 16 17 17 18 21 22 23 24 24 25 26 27 27 27 27 28 28 30 31 32 33 34 35 36 38 41 43 44 43 44 45 45 45 46
15 15 18 24 23 18 17 20 17 17 17 17 19 21 23 25 27 29 30 30 29 29 29 30 30 30 31 32 34 35 37 38 38 40 42 45 46 46 46 46 47 47 47 46
16 15 19 26 26 21 18 19 16 19 23 26 27 27 27 27 29 31 32 32 32 32 31 32 33 33 34 35 37 39 40 41 43 45 46 47 48 48 49 49 49 49 47 46
21 22 26 25 26 24 22 22 24 26 28 30 30 30 30 31 31 32 33 33 34 34 34 34 35 36 37 38 40 42 43 44 46 48 49 49 50 49 50 51 50 50 49 47
26 29 29 30 29 26 26 28 30 31 31 32 32 32 32 33 33 33 34 35 35 36 37 38 39 39 40 42 43 45 46 48 50 51 51 52 52 52 53 54 53 52 50 48
29 30 33 33 32 32 32 33 34 33 33 33 33 34 34 35 35 36 36 37 37 38 38 40 41 42 43 44 46 47 49 50 52 53 54 53 53 54 54 54 54 53 51 48
29 34 36 36 36 36 36 36 36 36 35 35 36 36 36 37 37 38 39 39 40 40 41 43 44 45 46 47 49 50 51 52 53 54 54 55 55 55 56 56 56 54 51 49
34 35 37 38 37 36 38 38 38 37 37 37 37 38 38 39 39 40 41 41 42 42 43 45 46 47 49 50 51 52 53 55 56 56 56 57 57 57 57 57 55 53 50 48
35 35 37 37 37 37 39 40 40 39 38 38 39 40 41 41 42 42 43 43 44 45 46 47 48 50 51 52 53 54 55 56 58 58 59 59 59 59 59 57 54 52 49 46
35 36 37 38 38 38 39 41 41 41 41 41 41 42 43 43 44 44 45 46 46 48 49 50 51 53 54 55 56 57 58 59 60 61 62 61 60 59 57 55 53 50 47 44
35 37 39 39 40 40 41 41 42 43 43 43 44 44 45 45 45 46 47 49 50 51 52 54 55 56 57 58 59 61 62 62 62 62 62 60 59 56 54 52 50 47 44 42
35 37 37 38 39 40 41 42 42 43 44 45 45 46 46 47 48 50 51 53 54 55 57 58 60 61 62 63 63 64 64 63 63 62 61 58 56 53 50 48 46 43 42 40
35 36 37 38 39 40 41 42 43 43 45 46 47 48 49 51 52 54 55 57 58 60 61 62 64 64 65 65 65 64 63 62 60 59 57 54 52 49 46 45 43 41 39 37
35 36 37 38 40 41 42 43 44 45 47 48 50 52 53 55 57 58 59 61 62 63 64 65 66 66 66 65 65 64 62 60 58 56 53 51 48 46 44 42 40 38 36 36
35 36 38 39 41 42 44 45 47 48 50 52 53 55 57 59 60 62 63 64 65 65 66 66 65 65 65 63 62 61 60 58 56 53 50 48 46 43 41 39 37 36 35 34
37 39 40 42 44 45 47 49 50 52 53 55 57 58 60 62 63 64 64 65 65 65 65 65 64 63 62 61 60 58 57 55 52 49 47 44 41 39 37 35 34 33 32 31
41 42 44 45 47 48 50 51 53 55 57 58 60 61 62 63 64 64 64 64 63 62 61 60 60 59 58 57 56 54 53 50 47 43 41 39 36 34 33 32 32 30 29 29
44 45 46 48 49 51 52 54 56 57 59 60 61 62 62 62 61 61 60 59 58 56 55 54 54 53 53 52 50 48 46 43 41 39 36 34 32 31 29 29 28 27 27 26
47 48 49 50 52 53 55 56 57 59 59 59 59 59 58 57 56 55 53 52 50 49 49 48 48 48 47 46 44 41 39 36 34 33 31 29 27 26 26 25 25 25 24 23
49 50 51 53 54 55 56 57 57 56 56 55 54 53 52 50 49 47 47 45 43 43 44 43 42 41 41 40 37 35 33 31 29 27 25 24 24 23 23 23 22 21 20 19
51 52 53 54 54 55 55 54 53 52 50 48 47 45 44 43 42 41 40 39 38 38 38 38 38 38 37 36 34 31 28 27 25 21 19 18 19 19 20 20 19 18 17 16
51 52 52 52 51 51 49 48 46 44 43 41 39 38 37 36 36 36 35 35 35 36 36 37 37 36 34 32 29 25 23 21 18 16 15 15 14 14 15 14 14 14 13 12
49 49 49 48 47 45 43 41 40 38 37 35 34 33 32 32 32 32 32 33 34 35 36 35 33 31 30 28 25 22 20 17 14 12 11 10 10 10 10 10 10 10 10 10
Wind_Direction
263 270 290 290 290 284 283 278 271 272 277 277 277 283 288 294 296 297 295 294 293 295 297 297 297 297 299 302 306 309 311 313 313 313 311 311 312 314 316 317 319 320 320 320
272 253 261 262 263 266 271 274 271 271 269 267 273 280 287 294 295 295 294 294 294 296 297 297 296 296 298 301 305 308 311 312 312 312 312 310 310 311 313 315 318 320 319 320
275 260 265 260 249 249 260 271 276 272 270 273 276 281 288 293 295 296 295 296 297 298 297 296 296 296 298 301 304 307 309 310 310 311 312 311 311 310 311 313 316 319 320 320
282 270 273 274 263 242 247 254 263 272 277 281 285 290 294 294 296 298 299 300 300 298 297 296 296 296 298 301 303 305 307 308 309 309 310 312 313 312 311 313 316 317 319 320
281 272 277 276 270 252 242 242 252 264 273 275 282 292 295 296 298 299 299 299 298 297 297 297 296 296 298 300 302 304 305 307 309 309 311 313 314 313 312 313 315 315 316 318
295 278 276 279 281 272 270 263 261 271 275 274 282 286 286 289 292 293 295 296 296 295 295 295 296 296 298 300 301 303 304 306 308 310 312 314 313 313 313 314 314 314 315 317
293 275 263 266 268 274 266 261 270 281 286 285 284 285 285 284 283 285 288 291 292 293 292 293 295 296 298 300 301 302 304 306 308 309 311 312 313 313 314 315 314 313 316 316
285 274 263 270 268 266 266 275 283 287 285 284 283 283 283 283 283 285 287 288 290 291 291 293 294 296 297 299 300 302 304 306 308 309 310 311 312 313 314 315 314 314 315 315
268 272 275 275 276 277 282 284 285 285 284 283 283 283 284 285 286 286 287 288 289 290 291 293 294 295 296 297 298 300 302 304 306 306 307 308 309 311 312 313 313 313 314 313
265 274 278 282 285 290 290 287 286 285 284 284 285 286 286 287 288 288 289 289 289 290 290 291 292 293 294 295 296 298 299 301 302 303 305 306 308 309 309 310 311 312 312 312
267 273 276 281 285 286 285 284 285 286 287 287 288 288 289 289 289 289 289 289 289 289 290 290 291 292 293 295 296 297 298 300 301 302 303 305 306 307 307 307 309 309 309 309
269 275 278 280 280 281 282 284 285 287 289 290 290 290 290 290 290 290 290 289 289 289 289 290 291 292 293 295 296 297 298 299 300 301 302 302 303 304 305 306 306 305 306 306
270 272 275 278 281 283 285 287 288 289 290 291 291 291 291 291 291 291 291 291 291 291 291 291 292 293 293 295 296 297 298 298 299 299 300 300 301 302 303 303 303 303 303 303
270 272 275 278 282 285 286 288 289 290 291 292 292 292 292 293 293 293 293 293 293 293 294 294 294 294 295 296 296 297 297 297 298 298 298 298 298 299 299 299 299 300 300 298
270 272 275 279 282 283 285 286 288 290 291 292 293 294 294 295 295 295 295 295 295 295 295 295 295 295 296 296 296 296 296 296 296 296 296 296 296 296 295 295 296 297 295 295
273 275 278 280 281 283 285 286 288 290 291 293 294 295 295 296 296 296 297 297 297 297 297 296 296 296 296 296 295 295 295 295 295 295 295 294 294 294 293 293 293 292 292 292
278 279 280 281 283 284 286 288 290 291 292 294 295 295 296 297 297 297 297 297 297 297 297 297 296 297 296 295 295 295 294 294 294 293 293 293 292 291 290 289 288 288 289 289
281 281 282 283 285 287 288 290 291 292 294 295 295 296 297 297 297 298 298 298 298 297 297 297 297 297 296 296 295 295 294 293 292 291 290 289 289 288 287 285 285 286 286 287
282 283 284 286 288 289 290 291 292 293 294 295 296 297 297 297 298 298 298 298 298 298 298 298 297 297 296 296 295 295 294 293 291 290 288 287 286 285 284 283 281 282 284 285
283 285 287 288 289 290 291 292 294 294 295 296 297 297 298 298 299 299 299 300 300 300 299 299 298 297 297 296 295 294 293 292 291 289 286 284 282 281 281 279 277 279 281 281
286 287 288 289 290 291 292 294 295 296 297 298 298 299 299 300 301 301 301 301 301 301 301 300 299 298 297 296 295 294 293 292 290 287 284 281 278 275 273 272 274 277 278 279
288 289 289 290 292 293 294 295 296 297 298 299 300 301 301 302 302 303 303 303 304 303 303 302 302 301 300 299 298 296 294 291 288 284 281 277 274 270 267 268 272 274 276 277
289 290 291 292 293 294 296 297 298 299 300 301 301 302 303 303 304 305 305 306 307 307 306 306 306 305 305 304 302 300 296 292 289 284 277 272 268 267 266 266 267 269 270 272
290 291 293 294 295 296 297 298 299 300 301 302 303 304 305 305 306 308 309 310 311 311 311 311 310 309 309 308 306 303 298 294 291 284 277 270 264 262 260 261 263 265 265 266
291 293 294 295 296 297 298 300 300 301 302 303 305 306 307 308 310 311 312 313 314 314 315 315 314 313 313 312 309 306 302 297 292 282 272 267 264 259 256 256 257 259 260 260
292 293 294 296 297 298 299 300 301 302 304 305 307 308 309 310 312 314 315 316 317 318 318 318 317 316 316 316 315 313 309 305 297 283 271 268 265 261 254 251 251 250 247 247
294 295 296 297 298 299 300 301 302 303 304 306 307 309 310 312 313 316 317 318 319 320 321 320 320 320 320 320 318 316 314 309 298 288 278 270 262 252 244 240 237 234 234 240
Height
5858 5858 5858 5858 5859 5860 5859 5858 5858 5858 5856 5854 5852 5851 5850 5848 5846 5845 5843 5842 5841 5839 5838 5836 5834 5833 5831 5829 5827 5824 5821 5819 5816 5812 5809 5805 5801 5797 5793 5788 5783 5778 5772 5766
5855 5855 5855 5856 5857 5856 5856 5854 5854 5853 5853 5850 5849 5847 5846 5845 5843 5841 5839 5838 5836 5835 5833 5832 5830 5828 5826 5824 5821 5818 5815 5812 5809 5805 5802 5798 5794 5790 5785 5781 5775 5770 5764 5757
5851 5851 5850 5850 5850 5849 5850 5850 5850 5849 5849 5846 5845 5844 5842 5840 5838 5836 5835 5833 5831 5830 5828 5827 5825 5823 5820 5818 5815 5812 5809 5805 5802 5798 5794 5790 5786 5782 5777 5772 5766 5760 5754 5748
5847 5847 5847 5846 5842 5843 5845 5844 5844 5844 5842 5841 5840 5839 5837 5835 5833 5832 5830 5828 5826 5824 5822 5821 5818 5816 5813 5811 5808 5805 5801 5798 5794 5790 5786 5782 5777 5772 5767 5762 5757 5751 5744 5738
5843 5842 5842 5841 5838 5838 5838 5838 5838 5837 5836 5836 5835 5834 5831 5829 5828 5827 5825 5823 5821 5818 5815 5813 5811 5809 5806 5803 5800 5797 5793 5790 5786 5782 5777 5772 5767 5762 5757 5752 5746 5740 5734 5727
5838 5838 5838 5835 5831 5830 5832 5831 5830 5829 5829 5829 5829 5829 5827 5824 5822 5820 5818 5816 5814 5811 5809 5806 5803 5800 5798 5795 5791 5788 5784 5780 5777 5772 5767 5763 5757 5751 5746 5740 5735 5729 5723 5716
5832 5832 5832 5828 5827 5826 5828 5826 5822 5822 5822 5823 5822 5822 5820 5818 5816 5814 5811 5809 5806 5804 5801 5798 5795 5792 5789 5786 5782 5778 5774 5770 5766 5762 5757 5751 5746 5741 5735 5729 5723 5718 5712 5705
5826 5826 5825 5822 5820 5819 5819 5818 5817 5817 5817 5816 5815 5813 5811 5810 5808 5806 5804 5801 5798 5795 5792 5789 5786 5783 5780 5776 5772 5768 5764 5760 5756 5751 5746 5740 5735 5730 5724 5718 5712 5706 5700 5694
5820 5819 5817 5816 5815 5813 5813 5813 5812 5812 5810 5808 5807 5805 5803 5801 5799 5797 5795 5792 5789 5786 5783 5780 5777 5774 5770 5767 5762 5758 5754 5749 5745 5739 5734 5729 5723 5718 5712 5706 5700 5695 5689 5683
5812 5809 5809 5808 5808 5807 5807 5806 5805 5803 5802 5800 5798 5796 5794 5792 5790 5787 5785 5782 5779 5777 5773 5770 5767 5763 5760 5756 5752 5747 5743 5738 5733 5728 5723 5717 5711 5706 5700 5694 5688 5682 5676 5670
5805 5804 5802 5802 5801 5800 5799 5798 5796 5795 5793 5791 5789 5786 5784 5782 5779 5777 5774 5772 5769 5766 5763 5759 5755 5752 5748 5744 5740 5735 5731 5726 5720 5715 5710 5704 5699 5694 5688 5682 5676 5670 5664 5658
5799 5799 5797 5795 5794 5793 5791 5789 5788 5786 5784 5781 5779 5776 5773 5771 5768 5766 5763 5760 5757 5754 5751 5747 5743 5739 5735 5731 5727 5722 5717 5712 5707 5701 5696 5691 5686 5681 5675 5670 5664 5658 5652 5647
5792 5790 5788 5787 5785 5784 5781 5779 5777 5776 5774 5771 5769 5766 5763 5760 5757 5754 5751 5748 5745 5742 5738 5734 5730 5726 5722 5717 5713 5708 5703 5698 5692 5686 5681 5676 5670 5665 5660 5656 5650 5645 5640 5635
5784 5782 5780 5778 5777 5775 5773 5770 5767 5765 5763 5760 5758 5755 5752 5749 5745 5742 5739 5735 5732 5728 5724 5720 5716 5711 5707 5703 5698 5693 5687 5682 5676 5671 5665 5660 5655 5650 5645 5640 5635 5631 5627 5623
5775 5773 5771 5770 5768 5765 5763 5761 5758 5755 5752 5749 5746 5743 5740 5737 5733 5729 5726 5722 5718 5714 5709 5705 5700 5695 5691 5686 5681 5675 5670 5665 5659 5654 5649 5644 5639 5634 5630 5626 5621 5618 5614 5610
5765 5763 5762 5760 5758 5756 5753 5751 5748 5745 5741 5738 5735 5731 5728 5724 5720 5716 5712 5707 5703 5698 5693 5688 5683 5678 5673 5668 5662 5657 5652 5647 5641 5636 5631 5626 5622 5618 5614 5611 5607 5604 5601 5598
5756 5754 5753 5750 5748 5745 5743 5740 5737 5734 5730 5726 5723 5719 5715 5710 5706 5701 5697 5692 5687 5681 5676 5670 5665 5659 5654 5648 5643 5637 5633 5628 5623 5617 5613 5609 5605 5602 5599 5596 5593 5591 5588 5586
5746 5744 5742 5740 5737 5735 5732 5729 5725 5722 5718 5714 5710 5705 5701 5696 5691 5686 5681 5675 5670 5664 5657 5651 5645 5639 5633 5628 5622 5617 5612 5608 5604 5599 5596 5592 5589 5587 5584 5582 5580 5578 5576 5575
5736 5734 5731 5729 5726 5723 5720 5717 5713 5709 5705 5701 5696 5691 5686 5680 5675 5669 5663 5657 5651 5645 5639 5632 5625 5619 5613 5607 5602 5597 5592 5588 5584 5581 5578 5575 5573 5571 5570 5568 5567 5566 5565 5564
5726 5723 5721 5718 5715 5711 5708 5704 5700 5695 5691 5686 5681 5676 5670 5664 5658 5652 5645 5639 5632 5625 5618 5611 5605 5599 5593 5587 5582 5577 5572 5568 5565 5563 5560 5559 5558 5557 5556 5555 5555 5554 5554 5553
5715 5712 5709 5706 5702 5698 5694 5690 5685 5681 5676 5670 5665 5659 5653 5647 5640 5633 5627 5621 5614 5607 5600 5592 5586 5580 5574 5568 5563 5558 5553 5550 5547 5546 5544 5543 5543 5543 5543 5543 5543 5543 5543 5543
5702 5699 5696 5693 5689 5685 5680 5676 5671 5665 5660 5654 5648 5642 5636 5629 5623 5616 5609 5602 5596 5589 5582 5575 5569 5562 5556 5550 5546 5541 5537 5534 5531 5530 5529 5529 5530 5530 5531 5531 5532 5533 5533 5534
5689 5686 5683 5679 5675 5671 5666 5661 5655 5650 5644 5638 5632 5626 5619 5613 5607 5600 5594 5588 5581 5574 5567 5561 5554 5548 5542 5536 5531 5527 5523 5520 5518 5517 5516 5517 5518 5519 5520 5522 5523 5524 5525 5526
5676 5672 5669 5664 5660 5655 5651 5646 5640 5634 5629 5623 5617 5610 5605 5599 5593 5587 5580 5574 5569 5562 5555 5549 5543 5536 5530 5525 5520 5515 5511 5509 5507 5506 5506 5506 5507 5509 5511 5513 5515 5516 5517 5518
5662 5658 5654 5650 5645 5640 5635 5630 5625 5620 5614 5609 5604 5598 5592 5586 5582 5576 5570 5564 5559 5553 5546 5539 5533 5527 5521 5515 5510 5506 5502 5500 5498 5497 5497 5498 5499 5501 5503 5505 5508 5509 5511 5513
5648 5644 5639 5635 5630 5626 5621 5617 5612 5607 5602 5598 5593 5588 5583 5578 5573 5567 5562 5556 5551 5545 5538 5532 5525 5520 5514 5508 5503 5499 5496 5493 5492 5491 5492 5493 5494 5495 5497 5500 5502 5504 5506 5508
5633 5629 5625 5621 5616 5612 5608 5604 5600 5596 5592 5588 5584 5579 5575 5570 5566 5560 5555 5550 5544 5538 5531 5525 5519 5513 5508 5503 5499 5495 5492 5489 5488 5488 5488 5489 5490 5492 5494 5496 5499 5501 5503 5505